Weather History for Kemptville, ON

Change the Weather History Date:

Sunday, October 13, 2013

  Actual Average Record
Temperature  
Mean Temperature 57 °F -  
Max Temperature 70 °F - - ()
Min Temperature 44 °F - - ()
Degree Days  
Heating Degree Days 8    
Growing Degree Days 7 (Base 50)    
Moisture  
Dew Point 50 °F    
Average Humidity 73    
Maximum Humidity 95    
Minimum Humidity 45    
Precipitation  
Precipitation 0.00 in - - ()
Sea Level Pressure  
Sea Level Pressure 30.27 in    
Wind  
Wind Speed 3 mph ()    
Max Wind Speed 7 mph    
Max Gust Speed -    
T = Trace of Precipitation, MM = Missing Value Source: Averaged Metar Reports

Daily Weather History Graph

Daily Weather History Graph

Search for Another Location

Airport:

Trip Planner

Search our weather history database for the weather conditions in past years. The results will help you decide how hot, cold, wet, or windy it might be!

Date:

Astronomy

Oct. 13, 2013 Rise Set
Actual Time 7:15 AM EDT 6:20 PM EDT
Civil Twilight 6:46 AM EDT 6:50 PM EDT
Nautical Twilight 6:12 AM EDT 7:24 PM EDT
Astronomical Twilight 5:38 AM EDT 7:58 PM EDT
Moon 3:23 PM EDT (10/13) 1:08 AM EDT (10/13)
Length of Visible Light 12h 03m
Length of Day
11h 04m
Waxing Gibbous, 69% of the Moon is Illuminated
Oct 13
Waxing Gibbous
Oct 18
Full
Oct 26
Last Quarter
Nov 3
New
Nov 10
First Quarter

Hourly Weather History & Observations

Time (EDT) Temp. Windchill Dew Point Humidity Pressure Visibility Wind Dir Wind Speed Gust Speed Precip Events Conditions
12:00 AM 53.6 °F - 48.6 °F 83% 30.24 in - SSE 2.3 mph - N/A   Unknown
1:00 AM 55.2 °F - 47.7 °F 76% 30.25 in - South 3.5 mph - N/A   Unknown
2:00 AM 55 °F - 49 °F 73% 30.26 in - South 3.5 mph - -  
2:00 AM 55.4 °F - 48.7 °F 78% 30.26 in - South 3.5 mph - N/A   Unknown
3:00 AM 50.4 °F - 46.4 °F 86% 30.26 in - ESE 2.3 mph - N/A   Unknown
4:00 AM 46.8 °F - 43.7 °F 89% 30.26 in - Calm Calm - N/A   Unknown
5:00 AM 46.0 °F - 44.1 °F 93% 30.28 in - ESE 1.2 mph - N/A   Unknown
6:00 AM 45.5 °F - 44.1 °F 95% 30.30 in - ESE 2.3 mph - N/A   Unknown
7:00 AM 45.3 °F 44.0 °F 43.7 °F 94% 30.31 in - ESE 3.5 mph - N/A   Unknown
8:00 AM 49 °F - 47 °F 89% 30.31 in - SE 4.6 mph - -  
8:00 AM 48.6 °F - 46.8 °F 93% 30.31 in - SE 4.6 mph - N/A   Unknown
9:00 AM 54.1 °F - 48.4 °F 81% 30.32 in - SE 4.6 mph - N/A   Unknown
10:00 AM 59.0 °F - 49.6 °F 71% 30.33 in - South 4.6 mph - N/A   Unknown
11:00 AM 62.1 °F - 50.2 °F 65% 30.32 in - South 4.6 mph - N/A   Unknown
12:00 PM 64.8 °F - 50.4 °F 60% 30.31 in - SSW 5.8 mph - N/A   Unknown
1:00 PM 66.2 °F - 50.2 °F 56% 30.29 in - South 5.8 mph - N/A   Unknown
2:00 PM 68 °F - 52 °F 45% 30.26 in - South 4.6 mph - -  
2:00 PM 68.4 °F - 51.6 °F 55% 30.26 in - South 4.6 mph - N/A   Unknown
3:00 PM 69.1 °F - 51.8 °F 54% 30.25 in - SSW 6.9 mph - N/A   Unknown
4:00 PM 69.8 °F - 52.0 °F 53% 30.23 in - South 3.5 mph - N/A   Unknown
5:00 PM 68.2 °F - 52.2 °F 56% 30.23 in - SSW 5.8 mph - N/A   Unknown
6:00 PM 66.2 °F - 52.7 °F 62% 30.24 in - SW 3.5 mph - N/A   Unknown
7:00 PM 64.0 °F - 52.2 °F 65% 30.25 in - SW 3.5 mph - N/A   Unknown
8:00 PM 63 °F - 52 °F 59% 30.25 in - SW 1.2 mph - -  
8:00 PM 62.8 °F - 52.2 °F 68% 30.25 in - SW 1.2 mph - N/A   Unknown
9:00 PM 60.8 °F - 53.1 °F 76% 30.25 in - Calm Calm - N/A   Unknown
10:00 PM 60.1 °F - 55.0 °F 83% 30.25 in - SW 1.2 mph - N/A   Unknown
11:00 PM 59.2 °F - 55.2 °F 87% 30.24 in - SSE 1.2 mph - N/A   Unknown